Homer, AK

4:55 PM AKDT on June 26, 2017 (GMT -0800)
Homer

Weather History for PAHO - January, 2013

Change the Weather History Date:

Sunday, January 27, 2013

  Actual Average Record
Temperature  
Mean Temperature 6 °F -  
Max Temperature 12 °F 30 °F 55 °F (2014)
Min Temperature 1 °F 19 °F -17 °F (1947)
Degree Days  
Heating Degree Days 58    
Moisture  
Dew Point -12 °F    
Average Humidity 42    
Maximum Humidity 51    
Minimum Humidity 33    
Precipitation  
Precipitation 0.00 in - - ()
Sea Level Pressure  
Sea Level Pressure 30.04 in    
Wind  
Wind Speed 9 mph (NE)    
Max Wind Speed 16 mph    
Max Gust Speed 24 mph    
Visibility 10 miles    
Events      
Averages and records for this station are not official NWS values.
T = Trace of Precipitation, MM = Missing Value Source: NWS Daily Summary

Daily Weather History Graph

Daily Weather History Graph

Search for Another Location

Airport or City:

Trip Planner

Search our weather history database for the weather conditions in past years. The results will help you decide how hot, cold, wet, or windy it might be!

Date:

Astronomy

Jan. 27, 2013 Rise Set
Actual Time 9:27 AM AKST 5:10 PM AKST
Civil Twilight 8:39 AM AKST 5:58 PM AKST
Nautical Twilight 7:48 AM AKST 6:49 PM AKST
Astronomical Twilight 7:00 AM AKST 7:38 PM AKST
Moon 6:46 PM AKST 9:00 AM AKST
Length of Visible Light 9h 18m
Length of Day
7h 42m
Full, 100% of the Moon is Illuminated
Jan 27
Full
Feb 3
Last Quarter
Feb 9
New
Feb 17
First Quarter
Feb 25
Full

Hourly Weather History & Observations

Time (AKST) Temp. Windchill Dew Point Humidity Pressure Visibility Wind Dir Wind Speed Gust Speed Precip Events Conditions
12:53 AM 10.0 °F 0.4 °F -5.1 °F 51% 29.91 in 10.0 mi NE 5.8 mph - N/A   Overcast
1:53 AM 10.9 °F -0.8 °F -4.0 °F 51% 29.92 in 10.0 mi ESE 8.1 mph - N/A   Overcast
3:53 AM 10.9 °F 0.2 °F -8.0 °F 42% 29.93 in 10.0 mi NNE 6.9 mph - N/A   Overcast
4:53 AM 12.9 °F 2.6 °F -11.0 °F 34% 29.94 in 10.0 mi ENE 6.9 mph - N/A   Overcast
5:53 AM 12.0 °F -2.0 °F -11.9 °F 34% 29.95 in 10.0 mi NNE 11.5 mph - N/A   Overcast
6:53 AM 10.0 °F -4.5 °F -11.9 °F 37% 29.96 in 10.0 mi North 11.5 mph - N/A   Mostly Cloudy
7:53 AM 9.0 °F -5.1 °F -11.0 °F 40% 29.97 in 10.0 mi NNE 10.4 mph - N/A   Mostly Cloudy
8:53 AM 8.1 °F -8.4 °F -9.9 °F 44% 29.99 in 10.0 mi ENE 13.8 mph - N/A   Mostly Cloudy
9:53 AM 6.1 °F -6.8 °F -11.0 °F 45% 30.03 in 10.0 mi NE 8.1 mph - N/A   Mostly Cloudy
10:53 AM 7.0 °F -1.7 °F -13.0 °F 40% 30.04 in 10.0 mi ENE 4.6 mph - N/A   Scattered Clouds
11:53 AM 7.0 °F -5.7 °F -13.0 °F 40% 30.04 in 10.0 mi NE 8.1 mph - N/A   Clear
12:53 PM 10.0 °F -2.9 °F -13.0 °F 35% 30.05 in 10.0 mi NE 9.2 mph - N/A   Clear
1:53 PM 9.0 °F -6.6 °F -14.1 °F 35% 30.06 in 10.0 mi NNE 12.7 mph - N/A   Clear
2:53 PM 9.0 °F -6.6 °F -15.0 °F 33% 30.07 in 10.0 mi NE 12.7 mph - N/A   Clear
3:53 PM 7.0 °F -11.0 °F -15.0 °F 36% 30.08 in 10.0 mi NE 16.1 mph 24.2 mph N/A   Clear
4:53 PM 5.0 °F -10.8 °F -15.0 °F 39% 30.09 in 10.0 mi NE 11.5 mph - N/A   Clear
5:53 PM 3.9 °F -10.4 °F -15.0 °F 41% 30.12 in 10.0 mi ENE 9.2 mph - N/A   Clear
6:53 PM 3.9 °F -12.2 °F -11.9 °F 48% 30.13 in 10.0 mi ENE 11.5 mph - N/A   Clear
7:53 PM 3.0 °F -14.8 °F -13.0 °F 47% 30.13 in 10.0 mi ENE 13.8 mph 18.4 mph N/A   Clear
8:53 PM 1.9 °F -15.5 °F -13.0 °F 50% 30.14 in 10.0 mi ENE 12.7 mph - N/A   Clear
9:53 PM 1.9 °F -13.8 °F -13.0 °F 50% 30.15 in 10.0 mi ENE 10.4 mph - N/A   Clear
10:53 PM 1.9 °F -15.5 °F -15.0 °F 45% 30.15 in 10.0 mi NE 12.7 mph - N/A   Clear
11:53 PM 1.9 °F -13.8 °F -15.0 °F 45% 30.14 in 10.0 mi ENE 10.4 mph - N/A   Clear